Location: Rodson Ranch
(38.7188°N, 119.3202°W)
Time: 13:27:55
(UTC+00:00)

SAR-Lupe-4 - Pass Details

Date: 29 October 2020
Orbit: 481 x 484 km, 98.2° (Epoch: 25 November)

Event Time Altitude Azimuth Distance (km) Brightness Sun altitude
Rises 13:30:29 0° 187° (S) 2,532 7.2 -10.5°
Reaches altitude 10° 13:32:42 10° 198° (SSW) 1,657 6.2 -10.1°
Maximum altitude 13:35:53 30° 262° (W) 881 4.3 -9.5°
Drops below altitude 10° 13:39:05 10° 325° (NW) 1,667 5.9 -8.9°
Sets 13:41:20 0° 336° (NNW) 2,552 6.9 -8.5°
